2009/        α  (2000) δ      △      r    Daily motion  Elong. Phase    m1   天文薄明開始時
 27h JST    h  m       。  ,        AU      AU      ,     。     。      。      等     h。    A 。 
Apr. 20   22 54.76  -07 13.1    1.512   1.131    51.7/143    48.4   41.7    9.4    +6.2  283.5
     21   22 56.85  -07 54.4    1.495   1.132    52.8/143    49.2   42.2    9.4    +5.9  284.1
     22   22 58.98  -08 36.7    1.478   1.134    54.0/143    50.0   42.8    9.4    +5.5  284.7
     23   23 01.16  -09 20.0    1.462   1.135    55.2/143    50.8   43.3    9.4    +5.1  285.3
     24   23 03.39  -10 04.3    1.445   1.137    56.5/143    51.6   43.9    9.4    +4.7  285.9
     25   23 05.68  -10 49.6    1.428   1.139    57.8/144    52.4   44.4    9.3    +4.3  286.5
     26   23 08.01  -11 36.1    1.412   1.141    59.1/144    53.2   44.9    9.3    +3.8  287.2
     27   23 10.41  -12 23.6    1.395   1.144    60.5/144    54.0   45.4    9.3    +3.3  287.8
     28   23 12.87  -13 12.4    1.379   1.146    61.9/144    54.8   45.9    9.3    +2.8  288.4
     29   23 15.39  -14 02.2    1.362   1.149    63.4/144    55.6   46.3    9.3    +2.3  289.1
     30   23 17.97  -14 53.3    1.346   1.152    64.9/144    56.4   46.8    9.3    +1.8  289.8
May   1   23 20.63  -15 45.6    1.330   1.156    66.5/144    57.3   47.2    9.2    +1.2  290.4
      2   23 23.37  -16 39.2    1.314   1.159    68.1/144    58.1   47.6    9.2    +0.7  291.1
      3   23 26.18  -17 34.0    1.298   1.163    69.7/144    59.0   48.0    9.2    +0.0  291.8
      4   23 29.08  -18 30.2    1.283   1.167    71.4/144    59.8   48.3    9.2    -0.6  292.5
      5   23 32.06  -19 27.6    1.268   1.171    73.1/144    60.6   48.7    9.2    -1.3  293.2
      6   23 35.14  -20 26.4    1.253   1.175    74.8/144    61.5   49.0    9.2    -1.9  293.9
      7   23 38.32  -21 26.5    1.238   1.180    76.6/144    62.3   49.3    9.2    -2.7  294.6
      8   23 41.61  -22 27.9    1.224   1.185    78.3/143    63.2   49.5    9.2    -3.4  295.3
      9   23 45.00  -23 30.7    1.210   1.189    80.1/143    64.1   49.8    9.2    -4.2  296.1
     10   23 48.51  -24 34.7    1.197   1.195    81.9/143    64.9   50.0    9.2    -5.0  296.8
     11   23 52.14  -25 40.1    1.183   1.200    83.7/143    65.8   50.1    9.2    -5.8  297.5
     12   23 55.91  -26 46.8    1.171   1.205    85.5/143    66.6   50.3    9.2    -6.6  298.3
     13   23 59.81  -27 54.7    1.158   1.211    87.3/143    67.5   50.4    9.2    -7.5  299.1
     14   00 03.86  -29 03.7    1.147   1.217    89.1/142    68.3   50.5    9.1    -8.4  299.8
     15   00 08.07  -30 13.9    1.136   1.223    90.8/142    69.2   50.6    9.1    -9.4  300.6
     16   00 12.44  -31 25.2    1.125   1.229    92.5/142    70.0   50.6    9.2   -10.3  301.4
     17   00 16.98  -32 37.5    1.115   1.235    94.2/141    70.9   50.7    9.2   -11.3  302.2
     18   00 21.71  -33 50.6    1.105   1.242    95.8/141    71.7   50.7    9.2   -12.4  303.0
     19   00 26.63  -35 04.5    1.096   1.249    97.3/140    72.5   50.6    9.2   -13.4  303.8
     20   00 31.76  -36 19.1    1.088   1.255    98.7/140    73.3   50.6    9.2   -14.5  304.6
                    m1 =  8.0 + 5 log △ + 10.0 log r
NAKANO
         **** Don't distribute anyone except personal use only ****
                (C) Copyright 2009 OAA/ComputingSection
write mail from CFAD0::NAKANO on 2009-04-24 07:22:41(JST).
 
    C/2009 G1 (STEREO)
T 2009 Apr. 16.62655 TT                                 Nakano
q   1.1289543            (2000.0)            P               Q
                   Peri.  175.58396     +0.52901252     -0.23073914
                   Node   120.64222     -0.80476688     +0.16892240
e   1.0            Incl.  108.34479     -0.26925085     -0.95824040
From 21 observations 2009 Apr. 9-15.
                       
NAKANO
         **** Don't distribute anyone except personal use only ****
                (C) Copyright 2009 OAA/ComputingSection
write mail from CFAD0::NAKANO on 2009-04-17 06:28:28(JST).
 
◎C/2009 G1の軌道と予報位置

 4月10日の集まりから帰宅した上尾の門田健一氏がいち早く観測しました.
翌11日JSTになって,秦野の浅見敦夫氏,門田氏,守山の井狩康一氏から追跡
観測が報告されました.門田氏のCCD全光度は,それぞれ,10.6等,10.7等で
した.
 
    C/2009 G1 (STEREO)
T 2009 Mar. 13.49600 TT                                 Nakano
q   1.0260745            (2000.0)            P               Q
                   Peri.  133.86040     +0.41998846     +0.36115280
                   Node   123.46405     -0.79359124     -0.29889269
e   1.0            Incl.   93.61366     +0.44025292     -0.88330732
From 16 observations 2009 Apr. 9-10.

2009/        α  (2000) δ      △      r    Daily motion  Elong. Phase    m1   天文薄明開始時
 28h JST    h  m       。  ,        AU      AU      ,     。     。      。      等     h。    A 。 
Apr. 10   22 35.97  -01 07.0    1.671   1.131    42.0/142    41.3   35.7   10.2    +8.9  277.8
     11   22 37.70  -01 40.0    1.666   1.138    42.2/142    41.9   36.1   10.2    +8.7  278.3
     12   22 39.43  -02 13.3    1.660   1.146    42.5/142    42.6   36.4   10.2    +8.5  278.9
     13   22 41.16  -02 46.9    1.654   1.153    42.7/142    43.3   36.7   10.2    +8.3  279.4
     14   22 42.91  -03 20.7    1.648   1.161    43.0/143    44.1   37.0   10.2    +8.1  280.0
     15   22 44.65  -03 54.8    1.642   1.168    43.3/143    44.8   37.2   10.3    +7.8  280.5
     16   22 46.40  -04 29.2    1.636   1.176    43.5/143    45.5   37.5   10.3    +7.6  281.1
     17   22 48.16  -05 03.9    1.629   1.184    43.8/143    46.3   37.8   10.3    +7.4  281.7
     18   22 49.93  -05 39.0    1.623   1.193    44.1/143    47.1   38.1   10.3    +7.2  282.2
     19   22 51.70  -06 14.3    1.616   1.201    44.5/143    47.8   38.3   10.3    +6.9  282.8
     20   22 53.48  -06 50.0    1.610   1.210    44.8/144    48.6   38.6   10.4    +6.7  283.4
     21   22 55.26  -07 26.1    1.603   1.218    45.1/144    49.4   38.8   10.4    +6.5  283.9
     22   22 57.05  -08 02.5    1.596   1.227    45.5/144    50.2   39.0   10.4    +6.2  284.5
     23   22 58.85  -08 39.3    1.589   1.236    45.8/144    51.1   39.3   10.4    +6.0  285.1
     24   23 00.66  -09 16.4    1.582   1.245    46.2/144    51.9   39.5   10.4    +5.7  285.7
     25   23 02.47  -09 54.0    1.575   1.254    46.5/145    52.7   39.7   10.5    +5.4  286.3
     26   23 04.30  -10 32.0    1.568   1.264    46.9/145    53.6   39.8   10.5    +5.2  286.9
     27   23 06.13  -11 10.4    1.561   1.273    47.3/145    54.4   40.0   10.5    +4.9  287.5
     28   23 07.97  -11 49.2    1.554   1.283    47.7/145    55.3   40.2   10.5    +4.6  288.1
     29   23 09.81  -12 28.4    1.547   1.292    48.1/146    56.1   40.3   10.6    +4.4  288.7
     30   23 11.67  -13 08.1    1.540   1.302    48.5/146    57.0   40.5   10.6    +4.1  289.3
May   1   23 13.54  -13 48.3    1.533   1.312    48.9/146    57.9   40.6   10.6    +3.8  289.9
                    m1 =  8.5 + 5 log △ + 10.0 log r
NAKANO
         **** Don't distribute anyone except personal use only ****
                (C) Copyright 2009 OAA/ComputingSection
write mail from CFAD0::NAKANO on 2009-04-12 00:49:37(JST).
◎SWAN彗星の軌道と予報位置

 SOHO衛星のSWAN画像から12等級の彗星の発見が報告され,4月6日に下記の観測が
報告されました.なお,守山の井狩康一氏も,この彗星を確認し,その核光度を13.7
等と報告しています.なお,彗星符号は,(仮)です.

    C/2009 G1 (SWAN)
T 2009 May 10.00937 TT                                  Nakano
q   1.2550007            (2000.0)            P               Q
                   Peri.  132.52127     -0.05867662     -0.17499647
                   Node   279.70843     +0.32757047     +0.92662808
e   1.0            Incl.   85.63456     +0.94300299     -0.33277116

彗星は,夕方の空でも観測できる.

